| time (UTC) | temp C | wind direction | speed KPH | gust KPH | rain 1hr cm | rain 24hr cm | rain mn cm | humidity % | barometer mb |
| 20260506111504 | 17 | 206 | 0.0 | 8.0 | 0.00 | 0.00 | 0.00 | 91 | 1014.5 |
| 20260506110003 | 16 | 206 | 0.0 | 3.2 | 0.00 | 0.00 | 0.00 | 92 | 1014.3 |
| 20260506104525 | 16 | 276 | 0.0 | 4.8 | 0.00 | 0.00 | 0.00 | 92 | 1014.5 |
| 20260506103004 | 16 | 210 | 0.0 | 1.6 | 0.00 | 0.00 | 0.00 | 92 | 1014.5 |
| 20260506101505 | 16 | 255 | 0.0 | 3.2 | 0.00 | 0.00 | 0.00 | 91 | 1014.3 |
| 20260506100005 | 16 | 296 | 0.0 | 1.6 | 0.00 | 0.00 | 0.00 | 91 | 1014.1 |
| 20260506094524 | 16 | 279 | 0.0 | 3.2 | 0.00 | 0.00 | 0.00 | 91 | 1014.3 |
| 20260506093025 | 17 | 212 | 0.0 | 6.4 | 0.00 | 0.00 | 0.00 | 90 | 1014.3 |
| 20260506091525 | 17 | 247 | 0.0 | 6.4 | 0.00 | 0.00 | 0.00 | 90 | 1014.6 |
| 20260506090004 | 17 | 203 | 0.0 | 4.8 | 0.00 | 0.00 | 0.00 | 90 | 1014.7 |
| 20260506084524 | 17 | 229 | 0.0 | 6.4 | 0.00 | 0.00 | 0.00 | 90 | 1014.6 |
| 20260506083005 | 17 | 255 | 0.0 | 6.4 | 0.00 | 0.00 | 0.00 | 90 | 1014.5 |
| 20260506081503 | 17 | 185 | 0.0 | 6.4 | 0.00 | 0.00 | 0.00 | 89 | 1014.5 |
| 20260506073006 | 17 | 230 | 0.0 | 4.8 | 0.00 | 0.00 | 0.00 | 88 | 1014.5 |
| 20260506071505 | 17 | 224 | 0.0 | 4.8 | 0.00 | 0.00 | 0.00 | 88 | 1014.4 |
| 20260506061526 | 17 | 170 | 0.0 | 6.4 | 0.00 | 0.00 | 0.00 | 87 | 1014.9 |
| 20260506044526 | 18 | 264 | 1.6 | 9.7 | 0.00 | 0.00 | 0.00 | 87 | 1015.6 |
| 20260506043005 | 18 | 230 | 1.6 | 11.3 | 0.00 | 0.00 | 0.00 | 87 | 1015.8 |
| 20260506041505 | 18 | 254 | 0.0 | 4.8 | 0.00 | 0.00 | 0.00 | 86 | 1015.8 |
| 20260506040006 | 18 | 263 | 0.0 | 6.4 | 0.00 | 0.00 | 0.00 | 85 | 1015.8 |
| 20260506034505 | 18 | 226 | 0.0 | 6.4 | 0.00 | 0.00 | 0.00 | 83 | 1015.7 |
| 20260506033026 | 18 | 274 | 0.0 | 6.4 | 0.00 | 0.00 | 0.00 | 82 | 1015.7 |
| 20260506031505 | 18 | 260 | 0.0 | 8.0 | 0.00 | 0.00 | 0.00 | 81 | 1015.7 |
| 20260506030005 | 18 | 242 | 1.6 | 9.7 | 0.00 | 0.00 | 0.00 | 80 | 1015.8 |
| 20260506024505 | 19 | 263 | 1.6 | 9.7 | 0.00 | 0.00 | 0.00 | 79 | 1015.8 |
| 20260506023005 | 19 | 256 | 1.6 | 9.7 | 0.00 | 0.00 | 0.00 | 77 | 1015.7 |
| 20260506021505 | 19 | 250 | 1.6 | 9.7 | 0.00 | 0.00 | 0.00 | 76 | 1015.8 |
| 20260506020004 | 20 | 253 | 1.6 | 9.7 | 0.00 | 0.00 | 0.00 | 76 | 1015.7 |
| 20260506014505 | 20 | 247 | 1.6 | 8.0 | 0.00 | 0.00 | 0.00 | 75 | 1015.5 |
| 20260506013005 | 20 | 199 | 1.6 | 9.7 | 0.00 | 0.00 | 0.00 | 75 | 1015.4 |
| 20260506011505 | 20 | 259 | 1.6 | 9.7 | 0.00 | 0.00 | 0.00 | 73 | 1015.3 |
| 20260506010005 | 20 | 257 | 1.6 | 11.3 | 0.00 | 0.00 | 0.00 | 73 | 1015.3 |
| 20260506004505 | 20 | 247 | 1.6 | 11.3 | 0.00 | 0.00 | 0.00 | 72 | 1015.2 |
| 20260506003004 | 21 | 229 | 1.6 | 9.7 | 0.00 | 0.00 | 0.00 | 71 | 1015.0 |
| 20260506001505 | 21 | 239 | 1.6 | 9.7 | 0.00 | 0.00 | 0.00 | 70 | 1014.9 |
| 20260506000005 | 21 | 262 | 1.6 | 9.7 | 0.00 | 0.00 | 0.00 | 69 | 1014.8 |
| 20260505234505 | 21 | 255 | 3.2 | 16.1 | 0.00 | 0.00 | 0.00 | 68 | 1014.5 |
| 20260505233005 | 22 | 242 | 3.2 | 11.3 | 0.00 | 0.00 | 0.00 | 67 | 1014.5 |
| 20260505231504 | 22 | 259 | 3.2 | 11.3 | 0.00 | 0.00 | 0.00 | 66 | 1014.3 |
| 20260505230005 | 22 | 244 | 3.2 | 14.5 | 0.00 | 0.00 | 0.00 | 66 | 1014.2 |
| 20260505224504 | 23 | 263 | 3.2 | 16.1 | 0.00 | 0.00 | 0.00 | 65 | 1014.2 |
| 20260505223005 | 23 | 240 | 3.2 | 17.7 | 0.00 | 0.00 | 0.00 | 65 | 1014.3 |
| 20260505221506 | 23 | 239 | 3.2 | 16.1 | 0.00 | 0.00 | 0.00 | 66 | 1014.3 |
| 20260505220005 | 23 | 251 | 3.2 | 17.7 | 0.00 | 0.00 | 0.00 | 65 | 1014.3 |
| 20260505214504 | 23 | 243 | 3.2 | 14.5 | 0.00 | 0.00 | 0.00 | 64 | 1014.2 |
| 20260505213005 | 24 | 254 | 3.2 | 16.1 | 0.00 | 0.00 | 0.00 | 62 | 1014.0 |
| 20260505211504 | 25 | 246 | 4.8 | 14.5 | 0.00 | 0.00 | 0.00 | 61 | 1014.0 |
| 20260505210005 | 26 | 233 | 3.2 | 14.5 | 0.00 | 0.00 | 0.00 | 59 | 1014.0 |
| 20260505204505 | 27 | 255 | 1.6 | 11.3 | 0.00 | 0.00 | 0.00 | 58 | 1014.0 |
| 20260505203004 | 26 | 267 | 3.2 | 9.7 | 0.00 | 0.00 | 0.00 | 58 | 1014.0 |
| 20260505201526 | 26 | 231 | 3.2 | 14.5 | 0.00 | 0.00 | 0.00 | 54 | 1014.3 |
| 20260505200025 | 26 | 273 | 3.2 | 16.1 | 0.00 | 0.00 | 0.00 | 55 | 1014.5 |
| 20260505194526 | 27 | 215 | 3.2 | 14.5 | 0.00 | 0.00 | 0.00 | 52 | 1014.7 |
| 20260505193005 | 27 | 244 | 3.2 | 14.5 | 0.00 | 0.00 | 0.00 | 49 | 1014.9 |
| 20260505191504 | 27 | 285 | 3.2 | 8.0 | 0.00 | 0.00 | 0.00 | 50 | 1015.0 |
| 20260505190004 | 27 | 242 | 3.2 | 16.1 | 0.00 | 0.00 | 0.00 | 50 | 1015.2 |
| 20260505184504 | 27 | 280 | 3.2 | 17.7 | 0.00 | 0.00 | 0.00 | 49 | 1015.3 |
| 20260505183004 | 27 | 258 | 3.2 | 17.7 | 0.00 | 0.00 | 0.00 | 51 | 1015.3 |
| 20260505181525 | 27 | 245 | 1.6 | 11.3 | 0.00 | 0.00 | 0.00 | 50 | 1015.4 |
| 20260505180005 | 27 | 226 | 1.6 | 9.7 | 0.00 | 0.00 | 0.00 | 52 | 1015.4 |
| 20260505174525 | 27 | 202 | 3.2 | 11.3 | 0.00 | 0.00 | 0.00 | 51 | 1015.6 |
| 20260505173004 | 26 | 247 | 3.2 | 9.7 | 0.00 | 0.00 | 0.00 | 48 | 1015.7 |
| 20260505171525 | 26 | 263 | 3.2 | 12.9 | 0.00 | 0.00 | 0.00 | 51 | 1015.8 |
| 20260505170004 | 26 | 251 | 3.2 | 12.9 | 0.00 | 0.00 | 0.00 | 49 | 1016.1 |
| 20260505164504 | 26 | 191 | 3.2 | 9.7 | 0.00 | 0.00 | 0.00 | 50 | 1016.3 |
| 20260505163004 | 26 | 196 | 3.2 | 12.9 | 0.00 | 0.00 | 0.00 | 54 | 1016.3 |
| 20260505161504 | 25 | 204 | 3.2 | 14.5 | 0.00 | 0.00 | 0.00 | 54 | 1016.5 |
| 20260505153004 | 24 | 222 | 3.2 | 14.5 | 0.00 | 0.00 | 0.00 | 57 | 1016.8 |
| 20260505151504 | 24 | 191 | 3.2 | 12.9 | 0.00 | 0.00 | 0.00 | 59 | 1016.7 |
| 20260505124504 | 18 | 184 | 1.6 | 12.9 | 0.00 | 0.00 | 0.00 | 75 | 1016.9 |
| 20260505123004 | 18 | 204 | 1.6 | 6.4 | 0.00 | 0.00 | 0.00 | 78 | 1016.8 |
| 20260505121504 | 17 | 220 | 1.6 | 11.3 | 0.00 | 0.00 | 0.00 | 80 | 1016.8 |
| 20260505120005 | 16 | 191 | 0.0 | 3.2 | 0.00 | 0.00 | 0.00 | 83 | 1016.9 |
| 20260505114504 | 16 | 140 | 0.0 | 4.8 | 0.00 | 0.00 | 0.00 | 85 | 1016.8 |
| 20260505113004 | 15 | 171 | 0.0 | 4.8 | 0.00 | 0.00 | 0.00 | 86 | 1016.7 |